Date String (YYYY-MM-DD hh:mm:ss) UTC,Instrument flags,absolute air pressure of the measurement (hPa),sample flow rate (lpm),inlet stack bypass flow (lpm),air temperature of the measurement (°C),ambient temperature measured by the external sensor (°C),aerosol sample conditioner tube jacket temperature (°C),OPC LED temperature (°C),internal box temperature (°C),relative humidity of the measurement (%),span deviation,mass concentration of particles derived from Lorenz-Mie calculation of OPC scattering (μg/m³),mass concentration of particles derived from Lorenz-Mie calculation of OPC scattering (μg/m³),mass concentration of particles derived from Lorenz-Mie calculation of OPC scattering (μg/m³)
DateTimeUTC,F1_M11,P_M11,Q1_M11,Q2_M11,T1_M11,T2_M11,T3_M11,T4_M11,T5_M11,U1_M11,ZSPAN_M11,X0_M11,X2_M11,X1_M11
2024-05-05 07:00:00,SystemResetWarning,0824.4,5.01,000.00,025.2,024.5,000.0,033.7,027.1,020.6,0000.0,0011.59,0004.23,0003.29
2024-05-05 07:01:00,SystemResetWarning,0824.3,5.00,000.00,025.2,024.5,000.0,033.7,027.1,020.6,0000.0,0011.21,0004.28,0003.31
2024-05-05 07:02:00,SystemResetWarning,0824.4,4.99,000.00,025.2,024.5,000.0,033.7,027.1,020.6,0000.0,0012.11,0004.33,0003.30
2024-05-05 07:03:00,SystemResetWarning,0824.4,5.00,000.00,025.2,024.5,000.0,033.7,027.1,020.6,0000.0,0012.10,0004.38,0003.32
2024-05-05 07:04:00,SystemResetWarning,0824.3,5.00,000.00,025.2,024.5,000.0,033.7,027.1,020.6,0000.0,0012.52,0004.38,0003.33
2024-05-05 07:05:00,SystemResetWarning,0824.3,5.01,000.00,025.2,024.5,000.0,033.7,027.1,020.6,0000.0,0012.96,0004.38,0003.32
2024-05-05 07:06:00,SystemResetWarning,0824.3,5.01,000.00,025.2,024.5,000.0,033.7,027.1,020.6,0000.0,0013.67,0004.40,0003.32
2024-05-05 07:07:00,SystemResetWarning,0824.3,5.00,000.00,025.2,024.5,000.0,033.7,027.1,020.6,0000.0,0013.68,0004.40,0003.33
2024-05-05 07:08:00,SystemResetWarning,0824.3,4.99,000.00,025.2,024.5,000.0,033.7,027.1,020.6,0000.0,0013.59,0004.43,0003.34
2024-05-05 07:09:00,SystemResetWarning,0824.3,4.99,000.00,025.3,024.5,000.0,033.7,027.1,020.6,0000.0,0014.13,0004.43,0003.34
2024-05-05 07:10:00,SystemResetWarning,0824.3,5.00,000.00,025.3,024.5,000.0,033.7,027.1,020.6,0000.0,0013.33,0004.44,0003.34
2024-05-05 07:11:00,SystemResetWarning,0824.3,5.02,000.00,025.3,024.5,000.0,033.7,027.1,020.6,0000.0,0013.09,0004.40,0003.33
2024-05-05 07:12:00,SystemResetWarning,0824.3,4.99,000.00,025.3,024.5,000.0,033.7,027.1,020.6,0000.0,0013.63,0004.37,0003.32
2024-05-05 07:13:00,SystemResetWarning,0824.3,4.99,000.00,025.3,024.5,000.0,033.7,027.1,020.6,0000.0,0013.45,0004.34,0003.33
2024-05-05 07:14:00,SystemResetWarning,0824.3,5.00,000.00,025.3,024.6,000.0,033.7,027.1,020.6,0000.0,0013.33,0004.33,0003.34
2024-05-05 07:15:00,SystemResetWarning,0824.3,5.00,000.00,025.3,024.6,000.0,033.7,027.1,020.7,0000.0,0013.39,0004.36,0003.35
2024-05-05 07:16:00,SystemResetWarning,0824.3,5.01,000.00,025.3,024.6,000.0,033.7,027.1,020.9,0000.0,0013.37,0004.41,0003.38
2024-05-05 07:17:00,SystemResetWarning,0824.2,5.01,000.00,025.3,024.6,000.0,033.7,027.1,020.8,0000.0,0014.18,0004.46,0003.40
2024-05-05 07:18:00,SystemResetWarning,0824.2,5.00,000.00,025.3,024.7,000.0,033.7,027.1,020.7,0000.0,0014.78,0004.51,0003.42
2024-05-05 07:19:00,SystemResetWarning,0824.1,4.99,000.00,025.3,024.7,000.0,033.7,027.1,020.7,0000.0,0014.62,0004.47,0003.43
2024-05-05 07:20:00,SystemResetWarning,0824.2,4.99,000.00,025.4,024.7,000.0,033.7,027.1,020.6,0000.0,0013.76,0004.46,0003.43
2024-05-05 07:21:00,SystemResetWarning,0824.1,4.99,000.00,025.4,024.7,000.0,033.7,027.1,020.6,0000.0,0013.57,0004.45,0003.44
2024-05-05 07:22:00,SystemResetWarning,0824.0,5.01,000.00,025.4,024.7,000.0,033.7,027.1,020.6,0000.0,0013.86,0004.51,0003.46
2024-05-05 07:23:00,SystemResetWarning,0823.9,5.01,000.00,025.4,024.7,000.0,033.7,027.2,020.6,0000.0,0014.39,0004.52,0003.48
2024-05-05 07:24:00,SystemResetWarning,0823.9,5.00,000.00,025.4,024.8,000.0,033.7,027.2,020.6,0000.0,0013.96,0004.56,0003.47
2024-05-05 07:25:00,SystemResetWarning,0823.9,4.99,000.00,025.4,024.8,000.0,033.7,027.2,020.5,0000.0,0013.93,0004.59,0003.47
2024-05-05 07:26:00,SystemResetWarning,0823.9,5.00,000.00,025.4,024.8,000.0,033.7,027.2,020.5,0000.0,0014.15,0004.62,0003.48
2024-05-05 07:27:00,SystemResetWarning,0823.8,5.01,000.00,025.4,024.8,000.0,033.8,027.2,020.4,0000.0,0014.42,0004.60,0003.48
2024-05-05 07:28:00,SystemResetWarning,0823.9,5.00,000.00,025.4,024.8,000.0,033.8,027.2,020.4,0000.0,0013.16,0004.57,0003.47
2024-05-05 07:29:00,SystemResetWarning,0823.9,5.01,000.00,025.4,024.8,000.0,033.8,027.2,020.4,0000.0,0012.55,0004.55,0003.45
2024-05-05 07:30:00,SystemResetWarning,0823.9,5.00,000.00,025.4,024.8,000.0,033.8,027.2,020.4,0000.0,0012.41,0004.58,0003.44
2024-05-05 07:31:00,SystemResetWarning,0823.9,4.99,000.00,025.4,024.8,000.0,033.8,027.2,020.5,0000.0,0012.72,0004.64,0003.44
2024-05-05 07:32:00,SystemResetWarning,0824.0,4.99,000.00,025.4,024.8,000.0,033.8,027.2,020.5,0000.0,0013.40,0004.64,0003.44
2024-05-05 07:33:00,SystemResetWarning,0823.9,5.00,000.00,025.4,024.8,000.0,033.8,027.2,020.5,0000.0,0013.21,0004.63,0003.44
2024-05-05 07:34:00,SystemResetWarning,0824.0,5.01,000.00,025.5,024.8,000.0,033.8,027.2,020.4,0000.0,0012.20,0004.63,0003.43
2024-05-05 07:35:00,SystemResetWarning,0823.9,5.00,000.00,025.4,024.8,000.0,033.8,027.2,020.4,0000.0,0011.88,0004.60,0003.44
2024-05-05 07:36:00,SystemResetWarning,0824.0,5.00,000.00,025.5,024.8,000.0,033.8,027.3,020.4,0000.0,0011.92,0004.57,0003.44
2024-05-05 07:37:00,SystemResetWarning,0824.0,5.00,000.00,025.5,024.8,000.0,033.8,027.3,020.4,0000.0,0012.09,0004.52,0003.43
2024-05-05 07:38:00,SystemResetWarning,0824.0,5.00,000.00,025.5,024.8,000.0,033.8,027.2,020.4,0000.0,0011.71,0004.56,0003.42
2024-05-05 07:39:00,SystemResetWarning,0823.9,4.99,000.00,025.5,024.8,000.0,033.8,027.2,020.4,0000.0,0011.95,0004.61,0003.42
2024-05-05 07:40:00,SystemResetWarning,0824.0,5.00,000.00,025.5,024.8,000.0,033.8,027.2,020.4,0000.0,0012.94,0004.62,0003.42
2024-05-05 07:41:00,SystemResetWarning,0824.0,5.00,000.00,025.5,024.8,000.0,033.8,027.2,020.4,0000.0,0013.50,0004.59,0003.43
2024-05-05 07:42:00,SystemResetWarning,0824.0,5.00,000.00,025.5,024.8,000.0,033.8,027.3,020.4,0000.0,0013.21,0004.56,0003.43
2024-05-05 07:43:00,SystemResetWarning,0824.0,5.00,000.00,025.5,024.8,000.0,033.8,027.2,020.4,0000.0,0013.36,0004.58,0003.43
2024-05-05 07:44:00,SystemResetWarning,0824.0,5.01,000.00,025.5,024.9,000.0,033.8,027.3,020.4,0000.0,0013.88,0004.57,0003.41
2024-05-05 07:45:00,SystemResetWarning,0824.0,5.00,000.00,025.5,024.9,000.0,033.8,027.3,020.4,0000.0,0014.23,0004.59,0003.42
2024-05-05 07:46:00,SystemResetWarning,0824.0,5.00,000.00,025.5,024.9,000.0,033.8,027.3,020.4,0000.0,0014.22,0004.57,0003.41
2024-05-05 07:47:00,SystemResetWarning,0824.0,5.01,000.00,025.5,024.9,000.0,033.8,027.3,020.4,0000.0,0015.31,0004.59,0003.41
2024-05-05 07:48:00,SystemResetWarning,0823.9,5.00,000.00,025.5,024.9,000.0,033.9,027.3,020.3,0000.0,0014.78,0004.62,0003.41
2024-05-05 07:49:00,SystemResetWarning,0823.9,5.00,000.00,025.5,024.9,000.0,033.9,027.3,020.3,0000.0,0014.72,0004.58,0003.41
2024-05-05 07:50:00,SystemResetWarning,0823.9,4.99,000.00,025.5,024.9,000.0,033.9,027.3,020.3,0000.0,0014.55,0004.55,0003.40
2024-05-05 07:51:00,SystemResetWarning,0823.9,4.99,000.00,025.5,024.9,000.0,033.9,027.3,020.3,0000.0,0013.56,0004.52,0003.40
2024-05-05 07:52:00,SystemResetWarning,0823.9,5.01,000.00,025.5,024.9,000.0,033.9,027.3,020.3,0000.0,0012.36,0004.53,0003.40
2024-05-05 07:53:00,SystemResetWarning,0823.9,5.02,000.00,025.6,024.9,000.0,033.9,027.3,020.3,0000.0,0012.78,0004.52,0003.40
2024-05-05 07:54:00,SystemResetWarning,0823.9,4.99,000.00,025.6,024.9,000.0,033.9,027.3,020.2,0000.0,0012.65,0004.50,0003.40
2024-05-05 07:55:00,SystemResetWarning,0823.9,4.99,000.00,025.6,024.9,000.0,033.9,027.3,020.2,0000.0,0012.19,0004.49,0003.40
2024-05-05 07:56:00,SystemResetWarning,0823.9,5.00,000.00,025.6,024.9,000.0,033.9,027.3,020.2,0000.0,0011.77,0004.52,0003.41
2024-05-05 07:57:00,SystemResetWarning,0823.9,5.02,000.00,025.6,024.9,000.0,033.9,027.3,020.2,0000.0,0011.81,0004.58,0003.42
2024-05-05 07:58:00,SystemResetWarning,0823.9,5.00,000.00,025.6,025.0,000.0,033.9,027.4,020.1,0000.0,0010.66,0004.58,0003.43
2024-05-05 07:59:00,SystemResetWarning,0823.9,4.99,000.00,025.6,025.0,000.0,033.9,027.4,020.1,0000.0,0010.44,0004.57,0003.43
